| time (UTC) | temp F | wind direction | speed knots | gust knots | rain 1hr in | rain 24hr in | rain mn in | humidity % | barometer mb |
| 20260507192423 | 54 | 193 | 0.9 | 2.6 | 0.00 | 0.00 | 0.00 | 77 | 1012.4 |
| 20260507191723 | 54 | 201 | 0.9 | 2.6 | 0.00 | 0.00 | 0.00 | 77 | 1012.3 |
| 20260507191023 | 54 | 183 | 0.9 | 2.6 | 0.00 | 0.00 | 0.00 | 76 | 1012.2 |
| 20260507190323 | 54 | 180 | 0.0 | 5.2 | 0.00 | 0.00 | 0.00 | 76 | 1012.2 |
| 20260507185623 | 54 | 180 | 0.0 | 1.7 | 0.00 | 0.00 | 0.00 | 76 | 1012.2 |
| 20260507184923 | 54 | 183 | 0.9 | 5.2 | 0.00 | 0.00 | 0.00 | 75 | 1012.2 |
| 20260507184223 | 54 | 184 | 1.7 | 5.2 | 0.00 | 0.00 | 0.00 | 75 | 1012.2 |
| 20260507183523 | 54 | 221 | 1.7 | 7.8 | 0.00 | 0.00 | 0.00 | 74 | 1012.1 |
| 20260507182823 | 54 | 171 | 1.7 | 6.1 | 0.00 | 0.00 | 0.00 | 75 | 1012.1 |
| 20260507182123 | 54 | 205 | 0.9 | 5.2 | 0.00 | 0.00 | 0.00 | 74 | 1012.0 |
| 20260507181423 | 54 | 207 | 0.9 | 6.1 | 0.00 | 0.00 | 0.00 | 74 | 1012.1 |
| 20260507180723 | 54 | 178 | 0.9 | 2.6 | 0.00 | 0.00 | 0.00 | 75 | 1012.1 |
| 20260507180023 | 54 | 207 | 0.9 | 3.5 | 0.00 | 0.00 | 0.00 | 75 | 1012.1 |
| 20260507175323 | 54 | 217 | 0.9 | 4.3 | 0.00 | 0.00 | 0.00 | 75 | 1012.0 |
| 20260507174824 | 54 | 231 | 0.9 | 4.3 | 0.00 | 0.00 | 0.00 | 75 | 1012.0 |
| 20260507174623 | 54 | 231 | 0.9 | 4.3 | 0.00 | 0.00 | 0.00 | 75 | 1012.0 |
| 20260507173923 | 53 | 171 | 0.9 | 4.3 | 0.00 | 0.00 | 0.00 | 74 | 1012.1 |
| 20260507173223 | 53 | 190 | 1.7 | 4.3 | 0.00 | 0.00 | 0.00 | 74 | 1012.2 |
| 20260507172523 | 53 | 180 | 1.7 | 7.8 | 0.00 | 0.00 | 0.00 | 73 | 1012.1 |
| 20260507171823 | 53 | 185 | 0.9 | 7.0 | 0.00 | 0.00 | 0.00 | 74 | 1012.1 |
| 20260507171123 | 53 | 161 | 0.9 | 4.3 | 0.00 | 0.00 | 0.00 | 74 | 1012.1 |
| 20260507170423 | 53 | 185 | 0.9 | 3.5 | 0.00 | 0.00 | 0.00 | 74 | 1012.1 |
| 20260507165724 | 53 | 180 | 0.9 | 5.2 | 0.00 | 0.00 | 0.00 | 76 | 1012.1 |
| 20260507165024 | 53 | 174 | 1.7 | 7.8 | 0.00 | 0.00 | 0.00 | 77 | 1012.2 |
| 20260507164324 | 54 | 192 | 0.9 | 4.3 | 0.00 | 0.00 | 0.00 | 76 | 1012.1 |
| 20260507163624 | 54 | 188 | 1.7 | 4.3 | 0.00 | 0.00 | 0.00 | 76 | 1012.2 |
| 20260507163021 | 55 | 215 | 1.7 | 7.8 | 0.00 | 0.00 | 0.00 | 75 | 1012.2 |
| 20260507162924 | 55 | 215 | 1.7 | 7.8 | 0.00 | 0.00 | 0.00 | 75 | 1012.2 |
| 20260507162224 | 55 | 209 | 1.7 | 10.4 | 0.00 | 0.00 | 0.00 | 74 | 1012.2 |
| 20260507161524 | 56 | 184 | 3.5 | 8.7 | 0.00 | 0.00 | 0.00 | 70 | 1012.1 |
| 20260507161148 | 56 | 185 | 3.5 | 6.1 | 0.00 | 0.00 | 0.00 | 68 | 1012.1 |
| 20260507160824 | 56 | 185 | 3.5 | 6.1 | 0.00 | 0.00 | 0.00 | 68 | 1012.1 |
| 20260507160310 | 57 | 181 | 2.6 | 6.1 | 0.00 | 0.00 | 0.00 | 63 | 1012.0 |
| 20260507160124 | 57 | 181 | 2.6 | 6.1 | 0.00 | 0.00 | 0.00 | 63 | 1012.0 |
| 20260507155424 | 58 | 196 | 1.7 | 9.6 | 0.00 | 0.00 | 0.00 | 63 | 1012.0 |
| 20260507154724 | 58 | 211 | 1.7 | 7.0 | 0.00 | 0.00 | 0.00 | 61 | 1012.0 |
| 20260507154024 | 58 | 217 | 1.7 | 2.6 | 0.00 | 0.00 | 0.00 | 60 | 1011.9 |
| 20260507153958 | 59 | 202 | 1.7 | 4.3 | 0.00 | 0.00 | 0.00 | 60 | 1012.0 |
| 20260507153324 | 59 | 202 | 1.7 | 4.3 | 0.00 | 0.00 | 0.00 | 60 | 1012.0 |
| 20260507152624 | 59 | 217 | 0.9 | 5.2 | 0.00 | 0.00 | 0.00 | 59 | 1012.0 |
| 20260507152026 | 59 | 174 | 0.9 | 7.8 | 0.00 | 0.00 | 0.00 | 59 | 1012.1 |
| 20260507151924 | 59 | 174 | 0.9 | 7.8 | 0.00 | 0.00 | 0.00 | 59 | 1012.1 |
| 20260507151224 | 58 | 192 | 0.9 | 5.2 | 0.00 | 0.00 | 0.00 | 60 | 1012.0 |
| 20260507150524 | 58 | 211 | 0.9 | 2.6 | 0.00 | 0.00 | 0.00 | 60 | 1012.0 |
| 20260507145824 | 58 | 194 | 0.9 | 0.9 | 0.00 | 0.00 | 0.00 | 60 | 1012.1 |
| 20260507145124 | 58 | 187 | 0.9 | 3.5 | 0.00 | 0.00 | 0.00 | 59 | 1012.1 |
| 20260507144424 | 58 | 196 | 0.9 | 6.1 | 0.00 | 0.00 | 0.00 | 59 | 1012.2 |
| 20260507143724 | 59 | 138 | 0.9 | 3.5 | 0.00 | 0.00 | 0.00 | 58 | 1012.2 |
| 20260507143025 | 59 | 178 | 0.9 | 4.3 | 0.00 | 0.00 | 0.00 | 58 | 1012.3 |
| 20260507142324 | 59 | 203 | 0.9 | 5.2 | 0.00 | 0.00 | 0.00 | 59 | 1012.3 |
| 20260507141624 | 59 | 211 | 0.9 | 5.2 | 0.00 | 0.00 | 0.00 | 59 | 1012.4 |
| 20260507140924 | 59 | 232 | 0.9 | 3.5 | 0.00 | 0.00 | 0.00 | 59 | 1012.4 |
| 20260507140224 | 59 | 184 | 1.7 | 6.1 | 0.00 | 0.00 | 0.00 | 59 | 1012.6 |
| 20260507135524 | 59 | 176 | 1.7 | 3.5 | 0.00 | 0.00 | 0.00 | 59 | 1012.6 |
| 20260507134824 | 59 | 192 | 1.7 | 3.5 | 0.00 | 0.00 | 0.00 | 60 | 1012.6 |
| 20260507134124 | 59 | 188 | 2.6 | 6.1 | 0.00 | 0.00 | 0.00 | 58 | 1012.6 |
| 20260507133424 | 59 | 185 | 2.6 | 7.0 | 0.00 | 0.00 | 0.00 | 58 | 1012.7 |
| 20260507132724 | 59 | 157 | 2.6 | 7.0 | 0.00 | 0.00 | 0.00 | 56 | 1012.7 |
| 20260507132024 | 59 | 192 | 2.6 | 8.7 | 0.00 | 0.00 | 0.00 | 55 | 1012.8 |
| 20260507131324 | 60 | 236 | 2.6 | 3.5 | 0.00 | 0.00 | 0.00 | 54 | 1012.7 |
| 20260507130624 | 60 | 184 | 3.5 | 9.6 | 0.00 | 0.00 | 0.00 | 53 | 1012.7 |
| 20260507125924 | 61 | 242 | 2.6 | 7.8 | 0.00 | 0.00 | 0.00 | 53 | 1012.7 |
| 20260507125224 | 60 | 176 | 2.6 | 6.1 | 0.00 | 0.00 | 0.00 | 55 | 1012.6 |
| 20260507124524 | 60 | 178 | 1.7 | 7.8 | 0.00 | 0.00 | 0.00 | 53 | 1012.7 |
| 20260507123824 | 61 | 167 | 2.6 | 5.2 | 0.00 | 0.00 | 0.00 | 53 | 1012.7 |
| 20260507123124 | 61 | 168 | 3.5 | 11.3 | 0.00 | 0.00 | 0.00 | 53 | 1012.8 |
| 20260507122424 | 60 | 181 | 1.7 | 6.1 | 0.00 | 0.00 | 0.00 | 54 | 1012.8 |
| 20260507121725 | 60 | 230 | 1.7 | 7.0 | 0.00 | 0.00 | 0.00 | 54 | 1012.9 |
| 20260507121720 | 60 | 190 | 2.6 | 7.0 | 0.00 | 0.00 | 0.00 | 54 | 1013.0 |
| 20260507121024 | 60 | 190 | 2.6 | 7.0 | 0.00 | 0.00 | 0.00 | 54 | 1013.0 |
| 20260507120325 | 59 | 183 | 2.6 | 10.4 | 0.00 | 0.00 | 0.00 | 54 | 1013.1 |
| 20260507115625 | 59 | 136 | 3.5 | 10.4 | 0.00 | 0.00 | 0.00 | 53 | 1013.1 |
| 20260507114925 | 58 | 178 | 3.5 | 9.6 | 0.00 | 0.00 | 0.00 | 56 | 1013.1 |
| 20260507114225 | 58 | 161 | 2.6 | 8.7 | 0.00 | 0.00 | 0.00 | 56 | 1013.1 |
| 20260507113525 | 58 | 198 | 2.6 | 9.6 | 0.00 | 0.00 | 0.00 | 57 | 1013.2 |
| 20260507112825 | 57 | 227 | 0.0 | 7.0 | 0.00 | 0.00 | 0.00 | 61 | 1013.3 |
| 20260507112522 | 57 | 132 | 0.9 | 0.0 | 0.00 | 0.00 | 0.00 | 64 | 1013.3 |
| 20260507112125 | 57 | 132 | 0.9 | 0.0 | 0.00 | 0.00 | 0.00 | 64 | 1013.3 |
| 20260507111425 | 56 | 164 | 0.9 | 4.3 | 0.00 | 0.00 | 0.00 | 69 | 1013.3 |
| 20260507110725 | 56 | 168 | 0.9 | 4.3 | 0.00 | 0.00 | 0.00 | 69 | 1013.4 |
| 20260507110025 | 55 | 169 | 0.9 | 4.3 | 0.00 | 0.00 | 0.00 | 70 | 1013.4 |
| 20260507105325 | 55 | 198 | 0.9 | 4.3 | 0.00 | 0.00 | 0.00 | 71 | 1013.5 |
| 20260507104625 | 54 | 187 | 0.9 | 3.5 | 0.00 | 0.00 | 0.00 | 72 | 1013.6 |
| 20260507103925 | 54 | 202 | 0.9 | 1.7 | 0.00 | 0.00 | 0.00 | 73 | 1013.6 |
| 20260507103225 | 53 | 115 | 0.9 | 1.7 | 0.00 | 0.00 | 0.00 | 73 | 1013.6 |
| 20260507102525 | 53 | 201 | 0.9 | 3.5 | 0.00 | 0.00 | 0.00 | 75 | 1013.7 |
| 20260507101825 | 52 | 192 | 1.7 | 6.1 | 0.00 | 0.00 | 0.00 | 75 | 1013.8 |
| 20260507101125 | 52 | 173 | 0.9 | 3.5 | 0.00 | 0.00 | 0.00 | 77 | 1013.8 |
| 20260507100425 | 51 | 130 | 0.9 | 2.6 | 0.00 | 0.00 | 0.00 | 78 | 1013.8 |
| 20260507095725 | 50 | 163 | 0.9 | 6.1 | 0.00 | 0.00 | 0.00 | 79 | 1013.8 |
| 20260507095025 | 50 | 120 | 0.9 | 2.6 | 0.00 | 0.00 | 0.00 | 79 | 1013.8 |
| 20260507094325 | 50 | 188 | 0.9 | 2.6 | 0.00 | 0.00 | 0.00 | 79 | 1013.7 |
| 20260507093626 | 49 | 222 | 0.9 | 2.6 | 0.00 | 0.00 | 0.00 | 80 | 1013.7 |
| 20260507092925 | 49 | 186 | 0.9 | 3.5 | 0.00 | 0.00 | 0.00 | 80 | 1013.7 |
| 20260507092225 | 49 | 171 | 0.9 | 5.2 | 0.00 | 0.00 | 0.00 | 81 | 1013.7 |
| 20260507091525 | 49 | 157 | 0.9 | 3.5 | 0.00 | 0.00 | 0.00 | 81 | 1013.7 |
| 20260507090825 | 48 | 188 | 1.7 | 4.3 | 0.00 | 0.00 | 0.00 | 81 | 1013.8 |
| 20260507090125 | 48 | 173 | 1.7 | 6.1 | 0.00 | 0.00 | 0.00 | 82 | 1013.8 |
| 20260507085425 | 48 | 181 | 1.7 | 5.2 | 0.00 | 0.00 | 0.00 | 83 | 1013.8 |
| 20260507084725 | 48 | 169 | 1.7 | 4.3 | 0.00 | 0.00 | 0.00 | 83 | 1013.7 |
| 20260507084025 | 47 | 170 | 1.7 | 4.3 | 0.00 | 0.00 | 0.00 | 84 | 1013.8 |
| 20260507083325 | 47 | 166 | 1.7 | 4.3 | 0.00 | 0.00 | 0.00 | 84 | 1013.8 |
| 20260507082625 | 47 | 207 | 1.7 | 4.3 | 0.00 | 0.00 | 0.00 | 85 | 1013.8 |
| 20260507081925 | 47 | 178 | 1.7 | 7.0 | 0.00 | 0.00 | 0.00 | 86 | 1013.8 |
| 20260507081225 | 47 | 183 | 1.7 | 6.1 | 0.00 | 0.00 | 0.00 | 86 | 1013.8 |
| 20260507080525 | 47 | 203 | 1.7 | 3.5 | 0.00 | 0.00 | 0.00 | 86 | 1013.8 |
| 20260507075825 | 46 | 165 | 0.9 | 2.6 | 0.00 | 0.00 | 0.00 | 87 | 1013.8 |
| 20260507075125 | 46 | 207 | 0.9 | 3.5 | 0.00 | 0.00 | 0.00 | 86 | 1013.8 |
| 20260507074425 | 46 | 174 | 0.9 | 2.6 | 0.00 | 0.00 | 0.00 | 87 | 1013.7 |
| 20260507073725 | 46 | 173 | 0.0 | 2.6 | 0.00 | 0.00 | 0.00 | 87 | 1013.7 |
| 20260507073025 | 46 | 155 | 0.0 | 1.7 | 0.00 | 0.00 | 0.00 | 87 | 1013.7 |
| 20260507072326 | 46 | 175 | 0.0 | 2.6 | 0.00 | 0.00 | 0.00 | 88 | 1013.7 |
| 20260507071626 | 46 | 178 | 0.9 | 3.5 | 0.00 | 0.00 | 0.00 | 88 | 1013.6 |
| 20260507070926 | 46 | 174 | 0.9 | 0.9 | 0.00 | 0.00 | 0.00 | 88 | 1013.6 |
| 20260507070226 | 45 | 177 | 0.0 | 3.5 | 0.00 | 0.00 | 0.00 | 88 | 1013.5 |
| 20260507065526 | 45 | 148 | 0.0 | 0.9 | 0.00 | 0.00 | 0.00 | 88 | 1013.5 |
| 20260507064826 | 45 | 127 | 0.9 | 2.6 | 0.00 | 0.00 | 0.00 | 88 | 1013.4 |
| 20260507064126 | 45 | 166 | 0.9 | 3.5 | 0.00 | 0.00 | 0.00 | 88 | 1013.5 |
| 20260507063426 | 45 | 158 | 0.9 | 5.2 | 0.00 | 0.00 | 0.00 | 88 | 1013.4 |
| 20260507062726 | 45 | 167 | 0.9 | 3.5 | 0.00 | 0.00 | 0.00 | 88 | 1013.4 |
| 20260507062026 | 45 | 224 | 0.9 | 2.6 | 0.00 | 0.00 | 0.00 | 88 | 1013.4 |
| 20260507061326 | 45 | 144 | 0.9 | 1.7 | 0.00 | 0.00 | 0.00 | 88 | 1013.4 |
| 20260507060626 | 45 | 183 | 0.9 | 0.9 | 0.00 | 0.00 | 0.00 | 88 | 1013.3 |
| 20260507055926 | 45 | 188 | 0.0 | 2.6 | 0.00 | 0.00 | 0.00 | 88 | 1013.3 |
| 20260507055226 | 45 | 175 | 0.9 | 2.6 | 0.00 | 0.00 | 0.00 | 88 | 1013.4 |
| 20260507054526 | 45 | 177 | 0.9 | 0.0 | 0.00 | 0.00 | 0.00 | 88 | 1013.3 |
| 20260507053826 | 45 | 172 | 0.9 | 1.7 | 0.00 | 0.00 | 0.00 | 88 | 1013.3 |
| 20260507053126 | 45 | 168 | 0.9 | 4.3 | 0.00 | 0.00 | 0.00 | 88 | 1013.3 |
| 20260507052426 | 45 | 190 | 0.9 | 1.7 | 0.00 | 0.00 | 0.00 | 88 | 1013.3 |
| 20260507051726 | 45 | 139 | 0.9 | 2.6 | 0.00 | 0.00 | 0.00 | 88 | 1013.3 |
| 20260507051026 | 45 | 152 | 0.9 | 2.6 | 0.00 | 0.00 | 0.00 | 88 | 1013.3 |
| 20260507050326 | 45 | 167 | 0.9 | 3.5 | 0.00 | 0.00 | 0.00 | 88 | 1013.3 |
| 20260507045626 | 45 | 162 | 0.9 | 2.6 | 0.00 | 0.00 | 0.00 | 88 | 1013.3 |
| 20260507044926 | 45 | 141 | 0.0 | 1.7 | 0.00 | 0.00 | 0.00 | 88 | 1013.2 |
| 20260507044226 | 45 | 144 | 0.0 | 3.5 | 0.00 | 0.00 | 0.00 | 88 | 1013.2 |
| 20260507043526 | 45 | 165 | 0.0 | 0.0 | 0.00 | 0.00 | 0.00 | 88 | 1013.2 |
| 20260507042826 | 45 | 169 | 0.0 | 0.0 | 0.00 | 0.00 | 0.00 | 88 | 1013.2 |
| 20260507042126 | 45 | 170 | 0.0 | 0.0 | 0.00 | 0.00 | 0.00 | 87 | 1013.2 |
| 20260507041426 | 45 | 171 | 0.0 | 0.0 | 0.00 | 0.00 | 0.00 | 87 | 1013.2 |
| 20260507040726 | 45 | 171 | 0.0 | 0.0 | 0.00 | 0.00 | 0.00 | 87 | 1013.2 |
| 20260507040026 | 45 | 171 | 0.0 | 1.7 | 0.00 | 0.00 | 0.00 | 87 | 1013.2 |
| 20260507035326 | 45 | 171 | 0.0 | 1.7 | 0.00 | 0.00 | 0.00 | 87 | 1013.2 |
| 20260507034626 | 45 | 169 | 0.0 | 1.7 | 0.00 | 0.00 | 0.00 | 87 | 1013.2 |
| 20260507033926 | 45 | 169 | 0.9 | 3.5 | 0.00 | 0.00 | 0.00 | 87 | 1013.2 |
| 20260507033226 | 45 | 166 | 0.9 | 2.6 | 0.00 | 0.00 | 0.00 | 86 | 1013.3 |
| 20260507032526 | 45 | 170 | 0.0 | 1.7 | 0.00 | 0.00 | 0.00 | 86 | 1013.3 |
| 20260507031826 | 45 | 184 | 0.0 | 1.7 | 0.00 | 0.00 | 0.00 | 86 | 1013.2 |
| 20260507031126 | 45 | 179 | 0.0 | 0.9 | 0.00 | 0.00 | 0.00 | 86 | 1013.3 |
| 20260507030426 | 45 | 178 | 0.9 | 3.5 | 0.00 | 0.00 | 0.00 | 86 | 1013.3 |
| 20260507025726 | 45 | 163 | 0.9 | 4.3 | 0.00 | 0.00 | 0.00 | 86 | 1013.3 |
| 20260507025026 | 45 | 163 | 0.0 | 1.7 | 0.00 | 0.00 | 0.00 | 86 | 1013.4 |
| 20260507024327 | 45 | 156 | 0.0 | 0.9 | 0.00 | 0.00 | 0.00 | 86 | 1013.4 |
| 20260507023627 | 45 | 154 | 0.9 | 2.6 | 0.00 | 0.00 | 0.00 | 86 | 1013.3 |
| 20260507022927 | 45 | 140 | 0.9 | 1.7 | 0.00 | 0.00 | 0.00 | 86 | 1013.3 |
| 20260507022227 | 45 | 113 | 0.9 | 5.2 | 0.00 | 0.00 | 0.00 | 85 | 1013.3 |
| 20260507021527 | 45 | 177 | 0.0 | 1.7 | 0.00 | 0.00 | 0.00 | 86 | 1013.3 |
| 20260507020827 | 45 | 171 | 0.0 | 0.9 | 0.00 | 0.00 | 0.00 | 85 | 1013.4 |
| 20260507020127 | 45 | 166 | 0.9 | 1.7 | 0.00 | 0.00 | 0.00 | 85 | 1013.4 |
| 20260507015427 | 45 | 161 | 0.9 | 2.6 | 0.00 | 0.00 | 0.00 | 85 | 1013.4 |
| 20260507014727 | 45 | 176 | 0.9 | 2.6 | 0.00 | 0.00 | 0.00 | 85 | 1013.5 |
| 20260507014027 | 45 | 175 | 0.9 | 2.6 | 0.00 | 0.00 | 0.00 | 85 | 1013.5 |
| 20260507013327 | 45 | 175 | 0.9 | 3.5 | 0.00 | 0.00 | 0.00 | 85 | 1013.4 |
| 20260507012627 | 45 | 108 | 0.0 | 5.2 | 0.00 | 0.00 | 0.00 | 85 | 1013.4 |
| 20260507011927 | 45 | 178 | 0.9 | 2.6 | 0.00 | 0.00 | 0.00 | 85 | 1013.5 |
| 20260507011227 | 46 | 173 | 0.9 | 3.5 | 0.00 | 0.00 | 0.00 | 85 | 1013.5 |
| 20260507010527 | 46 | 195 | 0.9 | 4.3 | 0.00 | 0.00 | 0.00 | 85 | 1013.4 |
| 20260507005827 | 46 | 153 | 0.9 | 2.6 | 0.00 | 0.00 | 0.00 | 84 | 1013.6 |
| 20260507005127 | 46 | 162 | 0.9 | 3.5 | 0.00 | 0.00 | 0.00 | 84 | 1013.6 |
| 20260507004427 | 46 | 139 | 0.9 | 2.6 | 0.00 | 0.00 | 0.00 | 84 | 1013.6 |
| 20260507003727 | 46 | 169 | 0.9 | 3.5 | 0.00 | 0.00 | 0.00 | 84 | 1013.4 |
| 20260507003027 | 46 | 104 | 0.9 | 4.3 | 0.00 | 0.00 | 0.00 | 84 | 1013.5 |
| 20260507002327 | 46 | 158 | 0.9 | 2.6 | 0.00 | 0.00 | 0.00 | 83 | 1013.6 |
| 20260507001627 | 46 | 167 | 0.0 | 4.3 | 0.00 | 0.00 | 0.00 | 84 | 1013.6 |
| 20260507000927 | 46 | 140 | 0.0 | 0.9 | 0.00 | 0.00 | 0.00 | 83 | 1013.6 |
| 20260507000227 | 46 | 139 | 0.9 | 1.7 | 0.00 | 0.00 | 0.00 | 83 | 1013.6 |
| 20260506235527 | 46 | 165 | 0.0 | 2.6 | 0.00 | 0.00 | 0.00 | 83 | 1013.6 |
| 20260506234827 | 46 | 167 | 0.9 | 4.3 | 0.00 | 0.00 | 0.00 | 82 | 1013.7 |
| 20260506234127 | 46 | 170 | 0.9 | 1.7 | 0.00 | 0.00 | 0.00 | 82 | 1013.6 |
| 20260506233427 | 46 | 186 | 0.9 | 2.6 | 0.00 | 0.00 | 0.00 | 82 | 1013.6 |
| 20260506232727 | 46 | 173 | 0.9 | 4.3 | 0.00 | 0.00 | 0.00 | 82 | 1013.6 |
| 20260506232027 | 46 | 159 | 0.9 | 2.6 | 0.00 | 0.00 | 0.00 | 81 | 1013.6 |
| 20260506231327 | 46 | 157 | 0.9 | 3.5 | 0.00 | 0.00 | 0.00 | 81 | 1013.6 |
| 20260506230627 | 46 | 152 | 0.9 | 2.6 | 0.00 | 0.00 | 0.00 | 81 | 1013.6 |
| 20260506225927 | 47 | 106 | 0.9 | 2.6 | 0.00 | 0.00 | 0.00 | 80 | 1013.6 |
| 20260506225227 | 47 | 142 | 0.9 | 1.7 | 0.00 | 0.00 | 0.00 | 80 | 1013.5 |
| 20260506224527 | 47 | 184 | 0.9 | 4.3 | 0.00 | 0.00 | 0.00 | 80 | 1013.5 |
| 20260506223827 | 47 | 180 | 0.0 | 0.9 | 0.00 | 0.00 | 0.00 | 79 | 1013.6 |
| 20260506223127 | 47 | 179 | 0.9 | 2.6 | 0.00 | 0.00 | 0.00 | 79 | 1013.6 |
| 20260506222427 | 47 | 131 | 0.9 | 2.6 | 0.00 | 0.00 | 0.00 | 79 | 1013.6 |
| 20260506221727 | 47 | 186 | 0.9 | 3.5 | 0.00 | 0.00 | 0.00 | 78 | 1013.5 |
| 20260506221027 | 47 | 181 | 0.9 | 4.3 | 0.00 | 0.00 | 0.00 | 78 | 1013.4 |
| 20260506220327 | 47 | 186 | 0.9 | 3.5 | 0.00 | 0.00 | 0.00 | 78 | 1013.4 |
| 20260506215628 | 47 | 192 | 0.0 | 2.6 | 0.00 | 0.00 | 0.00 | 78 | 1013.4 |
| 20260506214928 | 47 | 164 | 0.0 | 3.5 | 0.00 | 0.00 | 0.00 | 78 | 1013.3 |
| 20260506214228 | 47 | 167 | 0.0 | 2.6 | 0.00 | 0.00 | 0.00 | 78 | 1013.3 |
| 20260506213528 | 47 | 164 | 0.0 | 1.7 | 0.00 | 0.00 | 0.00 | 77 | 1013.2 |
| 20260506212828 | 47 | 163 | 0.0 | 1.7 | 0.00 | 0.00 | 0.00 | 77 | 1013.2 |
| 20260506212128 | 47 | 158 | 0.0 | 1.7 | 0.00 | 0.00 | 0.00 | 77 | 1013.1 |
| 20260506211428 | 47 | 158 | 0.0 | 3.5 | 0.00 | 0.00 | 0.00 | 76 | 1013.0 |
| 20260506210728 | 48 | 138 | 0.0 | 1.7 | 0.00 | 0.00 | 0.00 | 76 | 1012.9 |
| 20260506210028 | 48 | 166 | 0.0 | 1.7 | 0.00 | 0.00 | 0.00 | 75 | 1013.0 |
| 20260506205328 | 48 | 166 | 0.0 | 2.6 | 0.00 | 0.00 | 0.00 | 74 | 1012.9 |
| 20260506204628 | 49 | 161 | 0.0 | 0.9 | 0.00 | 0.00 | 0.00 | 73 | 1012.9 |
| 20260506203928 | 49 | 161 | 0.0 | 1.7 | 0.00 | 0.00 | 0.00 | 73 | 1012.8 |
| 20260506203228 | 49 | 157 | 0.0 | 0.0 | 0.00 | 0.00 | 0.00 | 72 | 1012.8 |
| 20260506202528 | 50 | 157 | 0.0 | 1.7 | 0.00 | 0.00 | 0.00 | 71 | 1012.7 |
| 20260506201828 | 50 | 159 | 0.0 | 2.6 | 0.00 | 0.00 | 0.00 | 70 | 1012.7 |
| 20260506201128 | 50 | 199 | 0.0 | 2.6 | 0.00 | 0.00 | 0.00 | 68 | 1012.5 |
| 20260506200428 | 51 | 161 | 0.9 | 3.5 | 0.00 | 0.00 | 0.00 | 67 | 1012.4 |
| 20260506195728 | 51 | 163 | 0.9 | 4.3 | 0.00 | 0.00 | 0.00 | 66 | 1012.5 |
| 20260506195028 | 51 | 174 | 1.7 | 3.5 | 0.00 | 0.00 | 0.00 | 65 | 1012.4 |
| 20260506194328 | 52 | 103 | 0.9 | 3.5 | 0.00 | 0.00 | 0.00 | 64 | 1012.4 |
| 20260506193628 | 52 | 148 | 0.9 | 3.5 | 0.00 | 0.00 | 0.00 | 63 | 1012.2 |
| 20260506192928 | 52 | 150 | 0.9 | 3.5 | 0.00 | 0.00 | 0.00 | 63 | 1012.2 |